Time,TemperatureF,DewpointF,PressureIn,WindDirection,WindDirectionDegrees,WindSpeedMPH,WindSpeedGustMPH,Humidity,HourlyPrecipIn,Conditions,Clouds,dailyrainin,SoftwareType,DateUTC
2013-01-10 00:00:00,53.1,50.2,30.30,SE,144,0.0,0.0,90,0.00,,,0.00,WeatherCatV1.00B22,2013-01-10 05:00:00,
2013-01-10 00:05:00,53.0,50.1,30.30,SE,144,0.0,0.0,90,0.00,,,0.00,WeatherCatV1.00B22,2013-01-10 05:05:00,
2013-01-10 00:10:00,53.0,50.4,30.30,SE,144,0.0,0.0,91,0.00,,,0.00,WeatherCatV1.00B22,2013-01-10 05:10:00,
2013-01-10 00:15:00,53.1,50.5,30.30,SE,144,0.0,0.0,91,0.00,,,0.00,WeatherCatV1.00B22,2013-01-10 05:15:00,
2013-01-10 00:20:00,53.1,50.5,30.30,SE,144,0.0,0.0,91,0.00,,,0.00,WeatherCatV1.00B22,2013-01-10 05:20:00,
2013-01-10 00:25:00,53.1,50.5,30.30,SE,144,0.0,0.0,91,0.00,,,0.00,WeatherCatV1.00B22,2013-01-10 05:25:00,
2013-01-10 00:30:00,53.1,50.5,30.30,SE,144,0.0,0.0,91,0.00,,,0.00,WeatherCatV1.00B22,2013-01-10 05:30:00,
2013-01-10 00:35:00,53.1,50.2,30.30,SE,144,0.0,0.0,90,0.00,,,0.00,WeatherCatV1.00B22,2013-01-10 05:35:00,
2013-01-10 00:53:00,53.1,50.5,30.29,NE,51,1.0,1.0,91,0.00,,,0.00,WeatherCatV1.00B22,2013-01-10 05:53:00,
2013-01-10 00:58:00,53.1,50.5,30.29,NE,51,0.0,0.0,91,0.00,,,0.00,WeatherCatV1.00B22,2013-01-10 05:58:00,
2013-01-10 01:03:00,53.2,50.6,30.29,NE,51,0.0,0.0,91,0.00,,,0.00,WeatherCatV1.00B22,2013-01-10 06:03:00,
2013-01-10 01:08:00,53.2,50.6,30.29,NE,51,0.0,0.0,91,0.00,,,0.00,WeatherCatV1.00B22,2013-01-10 06:08:00,
2013-01-10 01:13:00,53.2,50.6,30.29,NE,51,0.0,0.0,91,0.00,,,0.00,WeatherCatV1.00B22,2013-01-10 06:13:00,
2013-01-10 01:18:00,53.2,50.6,30.29,NE,51,0.0,0.0,91,0.00,,,0.00,WeatherCatV1.00B22,2013-01-10 06:18:00,
2013-01-10 01:23:00,53.2,50.6,30.29,NE,51,0.0,0.0,91,0.00,,,0.00,WeatherCatV1.00B22,2013-01-10 06:23:00,
2013-01-10 01:28:00,53.2,50.6,30.29,NE,51,0.0,0.0,91,0.00,,,0.00,WeatherCatV1.00B22,2013-01-10 06:28:00,
2013-01-10 01:33:00,53.3,50.7,30.29,NE,51,0.0,0.0,91,0.00,,,0.00,WeatherCatV1.00B22,2013-01-10 06:33:00,
2013-01-10 01:38:00,53.3,50.7,30.29,NE,51,0.0,1.0,91,0.00,,,0.00,WeatherCatV1.00B22,2013-01-10 06:38:00,
2013-01-10 01:43:00,53.4,51.1,30.29,NE,51,0.0,0.0,92,0.00,,,0.00,WeatherCatV1.00B22,2013-01-10 06:43:00,
2013-01-10 01:48:00,53.6,51.3,30.30,NE,51,0.0,0.0,92,0.00,,,0.00,WeatherCatV1.00B22,2013-01-10 06:48:00,
2013-01-10 01:50:00,53.6,51.3,30.29,NE,51,0.0,0.0,92,0.00,,,0.00,WeatherCatV1.00B22,2013-01-10 06:50:00,
2013-01-10 01:55:00,53.7,51.4,30.29,NE,51,0.0,0.0,92,0.00,,,0.00,WeatherCatV1.00B22,2013-01-10 06:55:00,
2013-01-10 02:00:00,53.9,51.3,30.29,NE,51,0.0,0.0,91,0.00,,,0.00,WeatherCatV1.00B22,2013-01-10 07:00:00,
2013-01-10 02:05:00,54.0,51.4,30.30,NE,51,0.0,1.0,91,0.00,,,0.00,WeatherCatV1.00B22,2013-01-10 07:05:00,
2013-01-10 02:10:00,54.1,51.5,30.29,NE,51,1.0,2.0,91,0.00,,,0.00,WeatherCatV1.00B22,2013-01-10 07:10:00,
2013-01-10 02:15:00,54.2,51.6,30.29,NE,51,1.0,1.0,91,0.00,,,0.00,WeatherCatV1.00B22,2013-01-10 07:15:00,
2013-01-10 02:20:00,54.2,51.6,30.29,NE,51,1.0,2.0,91,0.00,,,0.00,WeatherCatV1.00B22,2013-01-10 07:20:00,
2013-01-10 02:25:00,54.3,51.7,30.29,NE,51,0.0,2.0,91,0.00,,,0.00,WeatherCatV1.00B22,2013-01-10 07:25:00,
2013-01-10 02:30:00,54.3,51.7,30.30,NE,51,0.0,0.0,91,0.00,,,0.00,WeatherCatV1.00B22,2013-01-10 07:30:00,
2013-01-10 02:35:00,54.2,51.6,30.29,NNE,28,5.0,5.0,91,0.00,,,0.00,WeatherCatV1.00B22,2013-01-10 07:35:00,
2013-01-10 02:40:00,54.2,51.9,30.30,NNE,30,0.0,2.0,92,0.00,,,0.00,WeatherCatV1.00B22,2013-01-10 07:40:00,
2013-01-10 02:45:00,54.3,51.7,30.29,NNE,30,1.0,2.0,91,0.00,,,0.00,WeatherCatV1.00B22,2013-01-10 07:45:00,
2013-01-10 02:50:00,54.3,51.7,30.30,NNE,30,0.0,0.0,91,0.00,,,0.00,WeatherCatV1.00B22,2013-01-10 07:50:00,
2013-01-10 02:55:00,54.2,51.6,30.30,NNE,30,0.0,0.0,91,0.00,,,0.00,WeatherCatV1.00B22,2013-01-10 07:55:00,
2013-01-10 03:00:00,54.3,52.0,30.30,NNE,30,0.0,1.0,92,0.00,,,0.00,WeatherCatV1.00B22,2013-01-10 08:00:00,
2013-01-10 03:05:00,54.2,51.6,30.30,NNE,30,0.0,0.0,91,0.00,,,0.00,WeatherCatV1.00B22,2013-01-10 08:05:00,
2013-01-10 03:10:00,54.2,51.9,30.30,NNE,30,3.0,3.0,92,0.00,,,0.00,WeatherCatV1.00B22,2013-01-10 08:10:00,
2013-01-10 03:15:00,54.2,51.9,30.30,NNE,30,1.0,2.0,92,0.00,,,0.00,WeatherCatV1.00B22,2013-01-10 08:15:00,
2013-01-10 03:20:00,54.2,51.9,30.31,NNE,30,0.0,0.0,92,0.00,,,0.00,WeatherCatV1.00B22,2013-01-10 08:20:00,
2013-01-10 03:25:00,54.3,52.0,30.31,NNE,30,0.0,0.0,92,0.00,,,0.00,WeatherCatV1.00B22,2013-01-10 08:25:00,
2013-01-10 03:30:00,54.4,52.1,30.30,NNE,30,0.0,0.0,92,0.00,,,0.00,WeatherCatV1.00B22,2013-01-10 08:30:00,
2013-01-10 03:35:00,54.4,52.1,30.30,NNE,30,0.0,0.0,92,0.00,,,0.00,WeatherCatV1.00B22,2013-01-10 08:35:00,
2013-01-10 03:40:00,54.4,51.8,30.30,NNE,30,0.0,0.0,91,0.00,,,0.00,WeatherCatV1.00B22,2013-01-10 08:40:00,
2013-01-10 03:45:00,54.4,51.8,30.30,NNE,30,0.0,0.0,91,0.00,,,0.00,WeatherCatV1.00B22,2013-01-10 08:45:00,
2013-01-10 03:50:00,54.3,52.0,30.30,NNE,30,0.0,0.0,92,0.00,,,0.00,WeatherCatV1.00B22,2013-01-10 08:50:00,
2013-01-10 03:55:00,54.4,52.1,30.29,NNE,30,0.0,0.0,92,0.00,,,0.00,WeatherCatV1.00B22,2013-01-10 08:55:00,
2013-01-10 04:00:00,54.4,52.1,30.29,NNE,30,0.0,0.0,92,0.00,,,0.00,WeatherCatV1.00B22,2013-01-10 09:00:00,
2013-01-10 04:05:00,54.4,52.1,30.29,NNE,30,0.0,0.0,92,0.00,,,0.00,WeatherCatV1.00B22,2013-01-10 09:05:00,
2013-01-10 04:10:00,54.4,52.1,30.29,NNE,30,0.0,0.0,92,0.00,,,0.00,WeatherCatV1.00B22,2013-01-10 09:10:00,
2013-01-10 04:15:00,54.5,52.5,30.28,NNE,30,1.0,2.0,93,0.00,,,0.00,WeatherCatV1.00B22,2013-01-10 09:15:00,
2013-01-10 04:20:00,54.7,52.4,30.28,NNE,30,1.0,2.0,92,0.00,,,0.00,WeatherCatV1.00B22,2013-01-10 09:20:00,
2013-01-10 04:25:00,54.6,52.0,30.28,NNE,30,1.0,2.0,91,0.00,,,0.00,WeatherCatV1.00B22,2013-01-10 09:25:00,
2013-01-10 04:30:00,54.4,51.8,30.28,NNE,30,2.0,2.0,91,0.00,,,0.00,WeatherCatV1.00B22,2013-01-10 09:30:00,
2013-01-10 04:35:00,54.3,52.0,30.28,NNE,30,0.0,1.0,92,0.00,,,0.00,WeatherCatV1.00B22,2013-01-10 09:35:00,
2013-01-10 04:40:00,54.4,52.1,30.28,NNE,30,1.0,1.0,92,0.00,,,0.00,WeatherCatV1.00B22,2013-01-10 09:40:00,
2013-01-10 04:45:00,54.4,52.1,30.28,NNE,30,0.0,0.0,92,0.00,,,0.00,WeatherCatV1.00B22,2013-01-10 09:45:00,
2013-01-10 04:50:00,54.5,52.2,30.28,NNE,30,0.0,0.0,92,0.00,,,0.00,WeatherCatV1.00B22,2013-01-10 09:50:00,
2013-01-10 04:55:00,54.5,52.2,30.28,NNE,30,0.0,0.0,92,0.00,,,0.00,WeatherCatV1.00B22,2013-01-10 09:55:00,
2013-01-10 05:00:00,54.6,52.3,30.28,NNE,30,0.0,0.0,92,0.00,,,0.00,WeatherCatV1.00B22,2013-01-10 10:00:00,
2013-01-10 05:05:00,54.6,52.3,30.28,NNE,30,0.0,1.0,92,0.00,,,0.00,WeatherCatV1.00B22,2013-01-10 10:05:00,
2013-01-10 05:10:00,54.8,52.5,30.28,NE,48,0.0,0.0,92,0.00,,,0.00,WeatherCatV1.00B22,2013-01-10 10:10:00,
2013-01-10 05:15:00,54.9,52.3,30.27,NE,48,0.0,0.0,91,0.00,,,0.00,WeatherCatV1.00B22,2013-01-10 10:15:00,
2013-01-10 05:20:00,54.9,52.3,30.27,NE,48,1.0,2.0,91,0.00,,,0.00,WeatherCatV1.00B22,2013-01-10 10:20:00,
2013-01-10 05:25:00,54.8,52.2,30.27,NE,48,1.0,1.0,91,0.00,,,0.00,WeatherCatV1.00B22,2013-01-10 10:25:00,
2013-01-10 05:30:00,54.7,52.1,30.27,NE,48,1.0,2.0,91,0.00,,,0.00,WeatherCatV1.00B22,2013-01-10 10:30:00,
2013-01-10 05:35:00,54.7,52.1,30.27,NE,48,1.0,2.0,91,0.00,,,0.00,WeatherCatV1.00B22,2013-01-10 10:35:00,
2013-01-10 05:40:00,54.8,52.2,30.27,NE,48,2.0,2.0,91,0.00,,,0.00,WeatherCatV1.00B22,2013-01-10 10:40:00,
2013-01-10 05:45:00,54.9,52.3,30.27,NE,48,2.0,3.0,91,0.00,,,0.00,WeatherCatV1.00B22,2013-01-10 10:45:00,
2013-01-10 05:50:00,55.0,52.4,30.27,NE,48,0.0,2.0,91,0.00,,,0.00,WeatherCatV1.00B22,2013-01-10 10:50:00,
2013-01-10 05:55:00,55.0,52.1,30.27,NE,48,2.0,2.0,90,0.00,,,0.00,WeatherCatV1.00B22,2013-01-10 10:55:00,
2013-01-10 06:00:00,54.9,52.0,30.28,NE,48,2.0,2.0,90,0.00,,,0.00,WeatherCatV1.00B22,2013-01-10 11:00:00,
2013-01-10 06:05:00,54.8,52.2,30.27,NE,48,1.0,3.0,91,0.00,,,0.00,WeatherCatV1.00B22,2013-01-10 11:05:00,
2013-01-10 06:10:00,54.8,52.2,30.28,NE,40,3.0,4.0,91,0.00,,,0.00,WeatherCatV1.00B22,2013-01-10 11:10:00,
2013-01-10 06:15:00,55.0,52.1,30.28,NE,44,2.0,3.0,90,0.00,,,0.00,WeatherCatV1.00B22,2013-01-10 11:15:00,
2013-01-10 06:20:00,55.0,52.1,30.28,NE,44,2.0,3.0,90,0.00,,,0.00,WeatherCatV1.00B22,2013-01-10 11:20:00,
2013-01-10 06:25:00,55.1,52.2,30.28,NE,44,1.0,2.0,90,0.00,,,0.00,WeatherCatV1.00B22,2013-01-10 11:25:00,
2013-01-10 06:30:00,55.1,52.2,30.28,NE,44,1.0,2.0,90,0.00,,,0.00,WeatherCatV1.00B22,2013-01-10 11:30:00,
2013-01-10 06:35:00,55.1,52.2,30.28,NE,44,0.0,2.0,90,0.00,,,0.00,WeatherCatV1.00B22,2013-01-10 11:35:00,
2013-01-10 06:40:00,55.0,52.1,30.28,NE,44,1.0,2.0,90,0.00,,,0.00,WeatherCatV1.00B22,2013-01-10 11:40:00,
2013-01-10 06:45:00,54.9,52.0,30.28,NE,44,1.0,2.0,90,0.00,,,0.00,WeatherCatV1.00B22,2013-01-10 11:45:00,
2013-01-10 06:50:00,54.9,52.0,30.28,NE,44,2.0,3.0,90,0.00,,,0.00,WeatherCatV1.00B22,2013-01-10 11:50:00,
2013-01-10 06:55:00,54.9,52.0,30.28,NE,44,2.0,3.0,90,0.00,,,0.00,WeatherCatV1.00B22,2013-01-10 11:55:00,
2013-01-10 07:00:00,55.0,52.1,30.28,NE,44,3.0,4.0,90,0.00,,,0.00,WeatherCatV1.00B22,2013-01-10 12:00:00,
2013-01-10 07:05:00,55.0,52.1,30.28,NE,44,3.0,3.0,90,0.00,,,0.00,WeatherCatV1.00B22,2013-01-10 12:05:00,
2013-01-10 07:10:00,55.0,52.1,30.28,NE,44,3.0,4.0,90,0.00,,,0.00,WeatherCatV1.00B22,2013-01-10 12:10:00,
2013-01-10 07:15:00,54.9,52.0,30.28,NE,50,4.0,4.0,90,0.00,,,0.00,WeatherCatV1.00B22,2013-01-10 12:15:00,
2013-01-10 07:20:00,54.8,51.9,30.28,NE,48,4.0,5.0,90,0.00,,,0.00,WeatherCatV1.00B22,2013-01-10 12:20:00,
2013-01-10 07:25:00,54.8,51.9,30.28,NE,51,3.0,4.0,90,0.00,,,0.00,WeatherCatV1.00B22,2013-01-10 12:25:00,
2013-01-10 07:30:00,54.9,52.0,30.28,NE,55,3.0,4.0,90,0.00,,,0.00,WeatherCatV1.00B22,2013-01-10 12:30:00,
2013-01-10 07:35:00,55.0,52.1,30.28,NE,50,3.0,4.0,90,0.00,,,0.00,WeatherCatV1.00B22,2013-01-10 12:35:00,
2013-01-10 07:40:00,55.1,51.9,30.28,NE,55,2.0,4.0,89,0.00,,,0.00,WeatherCatV1.00B22,2013-01-10 12:40:00,
2013-01-10 07:45:00,55.3,52.1,30.28,ENE,62,2.0,4.0,89,0.00,,,0.00,WeatherCatV1.00B22,2013-01-10 12:45:00,
2013-01-10 07:50:00,55.7,52.2,30.28,NE,42,4.0,4.0,88,0.00,,,0.00,WeatherCatV1.00B22,2013-01-10 12:50:00,
2013-01-10 07:55:00,55.9,52.4,30.28,NE,47,4.0,4.0,88,0.00,,,0.00,WeatherCatV1.00B22,2013-01-10 12:55:00,
2013-01-10 08:00:00,55.9,52.4,30.28,ENE,60,3.0,4.0,88,0.00,,,0.00,WeatherCatV1.00B22,2013-01-10 13:00:00,
2013-01-10 08:05:00,56.0,52.2,30.28,ENE,68,3.0,5.0,87,0.00,,,0.00,WeatherCatV1.00B22,2013-01-10 13:05:00,
2013-01-10 08:10:00,56.2,52.4,30.28,East,84,3.0,5.0,87,0.00,,,0.00,WeatherCatV1.00B22,2013-01-10 13:10:00,
2013-01-10 08:15:00,56.6,52.5,30.28,East,82,2.0,5.0,86,0.00,,,0.00,WeatherCatV1.00B22,2013-01-10 13:15:00,
2013-01-10 08:20:00,56.9,52.8,30.29,East,87,2.0,3.0,86,0.00,,,0.00,WeatherCatV1.00B22,2013-01-10 13:20:00,
2013-01-10 08:25:00,57.0,52.5,30.29,ENE,69,4.0,4.0,85,0.00,,,0.00,WeatherCatV1.00B22,2013-01-10 13:25:00,
2013-01-10 08:30:00,57.1,52.6,30.29,ENE,72,4.0,7.0,85,0.00,,,0.00,WeatherCatV1.00B22,2013-01-10 13:30:00,
2013-01-10 08:35:00,57.3,52.8,30.29,East,84,2.0,3.0,85,0.00,,,0.00,WeatherCatV1.00B22,2013-01-10 13:35:00,
2013-01-10 08:40:00,57.4,52.6,30.29,ENE,65,2.0,4.0,84,0.00,,,0.00,WeatherCatV1.00B22,2013-01-10 13:40:00,
2013-01-10 08:45:00,57.5,52.7,30.29,NE,56,3.0,4.0,84,0.00,,,0.00,WeatherCatV1.00B22,2013-01-10 13:45:00,
2013-01-10 08:50:00,57.6,52.8,30.29,ENE,59,2.0,3.0,84,0.00,,,0.00,WeatherCatV1.00B22,2013-01-10 13:50:00,
2013-01-10 08:55:00,57.6,52.8,30.30,ENE,57,3.0,3.0,84,0.00,,,0.00,WeatherCatV1.00B22,2013-01-10 13:55:00,
2013-01-10 09:00:00,57.7,52.9,30.30,ENE,66,2.0,3.0,84,0.00,,,0.00,WeatherCatV1.00B22,2013-01-10 14:00:00,
2013-01-10 09:05:00,57.7,52.9,30.30,ENE,72,3.0,3.0,84,0.00,,,0.00,WeatherCatV1.00B22,2013-01-10 14:05:00,
2013-01-10 09:10:00,57.8,52.7,30.30,ENE,63,1.0,3.0,83,0.00,,,0.00,WeatherCatV1.00B22,2013-01-10 14:10:00,
2013-01-10 09:15:00,57.9,52.8,30.30,NE,56,2.0,3.0,83,0.00,,,0.00,WeatherCatV1.00B22,2013-01-10 14:15:00,
2013-01-10 09:20:00,58.0,52.9,30.30,East,86,1.0,4.0,83,0.00,,,0.00,WeatherCatV1.00B22,2013-01-10 14:20:00,
2013-01-10 09:25:00,58.1,53.0,30.30,ENE,67,2.0,3.0,83,0.00,,,0.00,WeatherCatV1.00B22,2013-01-10 14:25:00,
2013-01-10 09:30:00,58.2,53.1,30.30,NE,53,1.0,4.0,83,0.00,,,0.00,WeatherCatV1.00B22,2013-01-10 14:30:00,
2013-01-10 09:35:00,58.2,53.1,30.30,ENE,78,2.0,2.0,83,0.00,,,0.00,WeatherCatV1.00B22,2013-01-10 14:35:00,
2013-01-10 09:40:00,58.4,53.3,30.30,ENE,66,1.0,3.0,83,0.00,,,0.00,WeatherCatV1.00B22,2013-01-10 14:40:00,
2013-01-10 09:45:00,58.4,52.9,30.30,ENE,74,2.0,3.0,82,0.00,,,0.00,WeatherCatV1.00B22,2013-01-10 14:45:00,
2013-01-10 09:50:00,58.5,53.0,30.30,ENE,57,4.0,4.0,82,0.00,,,0.00,WeatherCatV1.00B22,2013-01-10 14:50:00,
2013-01-10 09:55:00,58.7,53.2,30.30,NE,53,2.0,4.0,82,0.00,,,0.00,WeatherCatV1.00B22,2013-01-10 14:55:00,
2013-01-10 10:00:00,58.8,53.3,30.30,SE,132,3.0,4.0,82,0.00,,,0.00,WeatherCatV1.00B22,2013-01-10 15:00:00,
2013-01-10 10:05:00,58.9,53.4,30.30,ENE,75,2.0,3.0,82,0.00,,,0.00,WeatherCatV1.00B22,2013-01-10 15:05:00,
2013-01-10 10:10:00,58.9,53.1,30.30,ENE,69,2.0,3.0,81,0.00,,,0.00,WeatherCatV1.00B22,2013-01-10 15:10:00,
2013-01-10 10:15:00,59.0,53.2,30.30,East,90,2.0,5.0,81,0.00,,,0.00,WeatherCatV1.00B22,2013-01-10 15:15:00,
2013-01-10 10:20:00,59.1,53.3,30.30,ENE,57,3.0,4.0,81,0.00,,,0.00,WeatherCatV1.00B22,2013-01-10 15:20:00,
2013-01-10 10:25:00,59.2,53.4,30.31,ENE,71,2.0,2.0,81,0.00,,,0.00,WeatherCatV1.00B22,2013-01-10 15:25:00,
2013-01-10 10:30:00,59.4,53.2,30.31,East,96,3.0,3.0,80,0.00,,,0.00,WeatherCatV1.00B22,2013-01-10 15:30:00,
2013-01-10 10:35:00,59.5,53.3,30.31,ENE,57,3.0,6.0,80,0.00,,,0.00,WeatherCatV1.00B22,2013-01-10 15:35:00,
2013-01-10 10:40:00,59.6,53.1,30.31,East,86,2.0,5.0,79,0.00,,,0.00,WeatherCatV1.00B22,2013-01-10 15:40:00,
2013-01-10 10:45:00,59.7,53.5,30.31,East,94,2.0,3.0,80,0.00,,,0.00,WeatherCatV1.00B22,2013-01-10 15:45:00,
2013-01-10 10:50:00,59.7,53.2,30.31,ENE,61,3.0,4.0,79,0.00,,,0.00,WeatherCatV1.00B22,2013-01-10 15:50:00,
2013-01-10 10:55:00,59.7,53.2,30.31,East,90,5.0,7.0,79,0.00,,,0.00,WeatherCatV1.00B22,2013-01-10 15:55:00,
2013-01-10 11:00:00,59.8,53.3,30.31,ENE,62,2.0,5.0,79,0.00,,,0.00,WeatherCatV1.00B22,2013-01-10 16:00:00,
2013-01-10 11:05:00,59.8,53.3,30.31,ENE,71,3.0,6.0,79,0.00,,,0.00,WeatherCatV1.00B22,2013-01-10 16:05:00,
2013-01-10 11:10:00,59.8,53.3,30.30,ESE,106,4.0,7.0,79,0.00,,,0.00,WeatherCatV1.00B22,2013-01-10 16:10:00,
2013-01-10 11:15:00,59.8,53.3,30.30,NE,53,4.0,6.0,79,0.00,,,0.00,WeatherCatV1.00B22,2013-01-10 16:15:00,
2013-01-10 11:20:00,59.9,53.4,30.30,NE,54,5.0,6.0,79,0.00,,,0.00,WeatherCatV1.00B22,2013-01-10 16:20:00,
2013-01-10 11:25:00,59.9,53.4,30.30,ENE,70,3.0,6.0,79,0.00,,,0.00,WeatherCatV1.00B22,2013-01-10 16:25:00,
2013-01-10 11:30:00,59.9,53.0,30.30,East,86,3.0,4.0,78,0.00,,,0.00,WeatherCatV1.00B22,2013-01-10 16:30:00,
2013-01-10 11:35:00,59.9,53.0,30.30,ENE,58,3.0,5.0,78,0.00,,,0.00,WeatherCatV1.00B22,2013-01-10 16:35:00,
2013-01-10 11:40:00,59.9,53.4,30.29,ENE,67,3.0,5.0,79,0.00,,,0.00,WeatherCatV1.00B22,2013-01-10 16:40:00,
2013-01-10 11:45:00,59.9,53.4,30.29,East,80,3.0,3.0,79,0.00,,,0.00,WeatherCatV1.00B22,2013-01-10 16:45:00,
2013-01-10 11:50:00,59.9,53.4,30.29,ENE,76,4.0,7.0,79,0.00,,,0.00,WeatherCatV1.00B22,2013-01-10 16:50:00,
2013-01-10 11:55:00,60.0,53.1,30.29,ENE,66,4.0,4.0,78,0.00,,,0.00,WeatherCatV1.00B22,2013-01-10 16:55:00,
2013-01-10 12:00:00,60.0,53.1,30.29,NE,44,3.0,5.0,78,0.00,,,0.00,WeatherCatV1.00B22,2013-01-10 17:00:00,
2013-01-10 12:05:00,60.0,53.1,30.28,NE,41,4.0,5.0,78,0.00,,,0.00,WeatherCatV1.00B22,2013-01-10 17:05:00,
2013-01-10 12:10:00,60.0,53.1,30.28,NE,40,4.0,5.0,78,0.00,,,0.00,WeatherCatV1.00B22,2013-01-10 17:10:00,
2013-01-10 12:15:00,60.1,53.6,30.28,ENE,61,2.0,4.0,79,0.00,,,0.00,WeatherCatV1.00B22,2013-01-10 17:15:00,
2013-01-10 12:20:00,60.2,53.7,30.28,East,80,5.0,5.0,79,0.00,,,0.00,WeatherCatV1.00B22,2013-01-10 17:20:00,
2013-01-10 12:25:00,60.2,53.7,30.27,NE,43,4.0,4.0,79,0.00,,,0.00,WeatherCatV1.00B22,2013-01-10 17:25:00,
2013-01-10 12:30:00,60.3,53.8,30.27,ENE,57,4.0,4.0,79,0.00,,,0.00,WeatherCatV1.00B22,2013-01-10 17:30:00,
2013-01-10 12:35:00,60.3,53.8,30.27,ENE,69,3.0,5.0,79,0.00,,,0.00,WeatherCatV1.00B22,2013-01-10 17:35:00,
2013-01-10 12:40:00,60.4,53.9,30.27,East,90,3.0,3.0,79,0.00,,,0.00,WeatherCatV1.00B22,2013-01-10 17:40:00,
2013-01-10 12:45:00,60.4,53.9,30.26,ENE,75,2.0,4.0,79,0.00,,,0.00,WeatherCatV1.00B22,2013-01-10 17:45:00,
2013-01-10 12:50:00,60.6,54.4,30.25,East,92,3.0,5.0,80,0.00,,,0.00,WeatherCatV1.00B22,2013-01-10 17:50:00,
2013-01-10 12:55:00,60.9,54.3,30.25,ENE,73,4.0,7.0,79,0.00,,,0.00,WeatherCatV1.00B22,2013-01-10 17:55:00,
2013-01-10 13:00:00,61.3,55.1,30.25,NE,48,4.0,6.0,80,0.00,,,0.00,WeatherCatV1.00B22,2013-01-10 18:00:00,
2013-01-10 13:05:00,61.6,55.0,30.24,East,81,5.0,5.0,79,0.00,,,0.00,WeatherCatV1.00B22,2013-01-10 18:05:00,
2013-01-10 13:10:00,61.8,55.2,30.24,NE,46,7.0,7.0,79,0.00,,,0.00,WeatherCatV1.00B22,2013-01-10 18:10:00,
2013-01-10 13:15:00,62.0,55.4,30.24,NE,46,6.0,9.0,79,0.00,,,0.00,WeatherCatV1.00B22,2013-01-10 18:15:00,
2013-01-10 13:20:00,62.1,55.5,30.24,NE,40,7.0,8.0,79,0.00,,,0.00,WeatherCatV1.00B22,2013-01-10 18:20:00,
2013-01-10 13:25:00,62.2,55.6,30.24,ENE,67,5.0,8.0,79,0.00,,,0.00,WeatherCatV1.00B22,2013-01-10 18:25:00,
2013-01-10 13:30:00,62.3,55.7,30.24,NE,55,3.0,6.0,79,0.00,,,0.00,WeatherCatV1.00B22,2013-01-10 18:30:00,
2013-01-10 13:35:00,62.4,55.8,30.23,NE,49,3.0,5.0,79,0.00,,,0.00,WeatherCatV1.00B22,2013-01-10 18:35:00,
2013-01-10 13:40:00,62.7,56.1,30.23,NE,52,7.0,7.0,79,0.00,,,0.00,WeatherCatV1.00B22,2013-01-10 18:40:00,
2013-01-10 13:45:00,62.8,56.2,30.23,ENE,69,5.0,9.0,79,0.00,,,0.00,WeatherCatV1.00B22,2013-01-10 18:45:00,
2013-01-10 13:50:00,63.0,56.0,30.22,NE,55,4.0,10.0,78,0.00,,,0.00,WeatherCatV1.00B22,2013-01-10 18:50:00,
2013-01-10 13:55:00,63.1,56.1,30.22,ENE,64,8.0,11.0,78,0.00,,,0.00,WeatherCatV1.00B22,2013-01-10 18:55:00,
2013-01-10 14:00:00,63.2,56.2,30.22,East,90,6.0,9.0,78,0.00,,,0.00,WeatherCatV1.00B22,2013-01-10 19:00:00,
2013-01-10 14:05:00,63.4,56.4,30.22,ESE,110,7.0,7.0,78,0.00,,,0.00,WeatherCatV1.00B22,2013-01-10 19:05:00,
2013-01-10 14:10:00,63.5,55.4,30.22,ENE,62,7.0,12.0,75,0.00,,,0.00,WeatherCatV1.00B22,2013-01-10 19:10:00,
2013-01-10 14:15:00,63.7,55.6,30.22,East,98,6.0,7.0,75,0.00,,,0.00,WeatherCatV1.00B22,2013-01-10 19:15:00,
2013-01-10 14:20:00,63.7,54.9,30.22,East,93,5.0,9.0,73,0.00,,,0.00,WeatherCatV1.00B22,2013-01-10 19:20:00,
2013-01-10 14:25:00,63.7,55.3,30.22,East,84,6.0,7.0,74,0.00,,,0.00,WeatherCatV1.00B22,2013-01-10 19:25:00,
2013-01-10 14:30:00,63.6,54.8,30.22,NE,56,6.0,8.0,73,0.00,,,0.00,WeatherCatV1.00B22,2013-01-10 19:30:00,
2013-01-10 14:35:00,63.7,54.9,30.22,ENE,59,7.0,8.0,73,0.00,,,0.00,WeatherCatV1.00B22,2013-01-10 19:35:00,
2013-01-10 14:40:00,63.8,55.0,30.22,East,92,5.0,11.0,73,0.00,,,0.00,WeatherCatV1.00B22,2013-01-10 19:40:00,
2013-01-10 14:45:00,64.0,55.2,30.21,ESE,105,7.0,7.0,73,0.00,,,0.00,WeatherCatV1.00B22,2013-01-10 19:45:00,
2013-01-10 14:50:00,64.0,55.2,30.22,East,79,5.0,6.0,73,0.00,,,0.00,WeatherCatV1.00B22,2013-01-10 19:50:00,
2013-01-10 14:55:00,64.0,55.2,30.21,East,91,5.0,7.0,73,0.00,,,0.00,WeatherCatV1.00B22,2013-01-10 19:55:00,
2013-01-10 15:00:00,64.1,54.9,30.22,East,80,5.0,6.0,72,0.00,,,0.00,WeatherCatV1.00B22,2013-01-10 20:00:00,
2013-01-10 15:05:00,64.2,55.0,30.22,East,86,5.0,6.0,72,0.00,,,0.00,WeatherCatV1.00B22,2013-01-10 20:05:00,
2013-01-10 15:10:00,64.2,54.6,30.22,East,81,5.0,7.0,71,0.00,,,0.00,WeatherCatV1.00B22,2013-01-10 20:10:00,
2013-01-10 15:15:00,64.1,54.5,30.22,ESE,105,4.0,9.0,71,0.00,,,0.00,WeatherCatV1.00B22,2013-01-10 20:15:00,
2013-01-10 15:20:00,64.0,54.8,30.22,ENE,78,3.0,5.0,72,0.00,,,0.00,WeatherCatV1.00B22,2013-01-10 20:20:00,
2013-01-10 15:25:00,63.9,54.7,30.22,East,94,3.0,6.0,72,0.00,,,0.00,WeatherCatV1.00B22,2013-01-10 20:25:00,
2013-01-10 15:30:00,64.0,54.8,30.22,ENE,69,5.0,6.0,72,0.00,,,0.00,WeatherCatV1.00B22,2013-01-10 20:30:00,
2013-01-10 15:35:00,63.9,54.7,30.22,ENE,75,5.0,6.0,72,0.00,,,0.00,WeatherCatV1.00B22,2013-01-10 20:35:00,
2013-01-10 15:40:00,64.0,54.8,30.22,NE,50,5.0,7.0,72,0.00,,,0.00,WeatherCatV1.00B22,2013-01-10 20:40:00,
2013-01-10 15:45:00,64.1,54.9,30.22,ENE,65,3.0,7.0,72,0.00,,,0.00,WeatherCatV1.00B22,2013-01-10 20:45:00,
2013-01-10 15:50:00,64.0,54.8,30.22,East,88,5.0,5.0,72,0.00,,,0.00,WeatherCatV1.00B22,2013-01-10 20:50:00,
2013-01-10 15:55:00,64.0,54.8,30.22,ENE,57,3.0,7.0,72,0.00,,,0.00,WeatherCatV1.00B22,2013-01-10 20:55:00,
2013-01-10 16:00:00,63.9,54.7,30.22,East,85,5.0,6.0,72,0.00,,,0.00,WeatherCatV1.00B22,2013-01-10 21:00:00,
2013-01-10 16:05:00,63.8,54.6,30.22,NE,55,5.0,6.0,72,0.00,,,0.00,WeatherCatV1.00B22,2013-01-10 21:05:00,
2013-01-10 16:10:00,63.8,54.6,30.22,East,87,3.0,4.0,72,0.00,,,0.00,WeatherCatV1.00B22,2013-01-10 21:10:00,
2013-01-10 16:15:00,63.8,54.6,30.23,ENE,67,3.0,3.0,72,0.00,,,0.00,WeatherCatV1.00B22,2013-01-10 21:15:00,
2013-01-10 16:20:00,63.8,54.6,30.23,NE,49,5.0,5.0,72,0.00,,,0.00,WeatherCatV1.00B22,2013-01-10 21:20:00,
2013-01-10 16:25:00,63.7,54.9,30.23,ENE,67,3.0,4.0,73,0.00,,,0.00,WeatherCatV1.00B22,2013-01-10 21:25:00,
2013-01-10 16:30:00,63.7,54.9,30.23,ENE,74,3.0,4.0,73,0.00,,,0.00,WeatherCatV1.00B22,2013-01-10 21:30:00,
2013-01-10 16:35:00,63.7,54.9,30.22,ENE,57,3.0,4.0,73,0.00,,,0.00,WeatherCatV1.00B22,2013-01-10 21:35:00,
2013-01-10 16:40:00,63.6,54.8,30.22,NE,47,2.0,4.0,73,0.00,,,0.00,WeatherCatV1.00B22,2013-01-10 21:40:00,
2013-01-10 16:45:00,63.5,54.7,30.22,ENE,66,4.0,5.0,73,0.00,,,0.00,WeatherCatV1.00B22,2013-01-10 21:45:00,
2013-01-10 16:50:00,63.5,55.1,30.22,ENE,67,2.0,5.0,74,0.00,,,0.00,WeatherCatV1.00B22,2013-01-10 21:50:00,
2013-01-10 16:55:00,63.4,55.0,30.22,NE,56,3.0,4.0,74,0.00,,,0.00,WeatherCatV1.00B22,2013-01-10 21:55:00,
2013-01-10 17:00:00,63.3,54.9,30.22,NE,43,4.0,4.0,74,0.00,,,0.00,WeatherCatV1.00B22,2013-01-10 22:00:00,
2013-01-10 17:05:00,63.1,54.7,30.21,NE,56,4.0,5.0,74,0.00,,,0.00,WeatherCatV1.00B22,2013-01-10 22:05:00,
2013-01-10 17:10:00,63.0,54.9,30.21,ENE,73,3.0,4.0,75,0.00,,,0.00,WeatherCatV1.00B22,2013-01-10 22:10:00,
2013-01-10 17:15:00,62.9,54.8,30.21,ENE,68,2.0,4.0,75,0.00,,,0.00,WeatherCatV1.00B22,2013-01-10 22:15:00,
2013-01-10 17:20:00,62.9,54.8,30.21,NE,53,4.0,6.0,75,0.00,,,0.00,WeatherCatV1.00B22,2013-01-10 22:20:00,
2013-01-10 17:25:00,62.9,54.8,30.20,ENE,61,2.0,4.0,75,0.00,,,0.00,WeatherCatV1.00B22,2013-01-10 22:25:00,
2013-01-10 17:30:00,62.8,54.8,30.20,NE,41,5.0,5.0,75,0.00,,,0.00,WeatherCatV1.00B22,2013-01-10 22:30:00,
2013-01-10 17:35:00,62.8,55.1,30.20,NE,52,2.0,4.0,76,0.00,,,0.00,WeatherCatV1.00B22,2013-01-10 22:35:00,
2013-01-10 17:40:00,62.8,54.8,30.20,NE,56,3.0,4.0,75,0.00,,,0.00,WeatherCatV1.00B22,2013-01-10 22:40:00,
2013-01-10 17:45:00,62.7,54.7,30.21,ENE,63,2.0,3.0,75,0.00,,,0.00,WeatherCatV1.00B22,2013-01-10 22:45:00,
2013-01-10 17:50:00,62.6,54.9,30.20,ENE,63,2.0,3.0,76,0.00,,,0.00,WeatherCatV1.00B22,2013-01-10 22:50:00,
2013-01-10 17:55:00,62.5,54.8,30.20,ENE,57,2.0,3.0,76,0.00,,,0.00,WeatherCatV1.00B22,2013-01-10 22:55:00,
2013-01-10 18:00:00,62.3,54.6,30.20,ENE,57,3.0,3.0,76,0.00,,,0.00,WeatherCatV1.00B22,2013-01-10 23:00:00,
2013-01-10 18:05:00,62.1,54.4,30.20,ENE,57,2.0,3.0,76,0.00,,,0.00,WeatherCatV1.00B22,2013-01-10 23:05:00,
2013-01-10 18:10:00,62.0,54.7,30.20,ENE,57,2.0,3.0,77,0.00,,,0.00,WeatherCatV1.00B22,2013-01-10 23:10:00,
2013-01-10 18:15:00,61.8,54.5,30.20,NE,36,4.0,4.0,77,0.00,,,0.00,WeatherCatV1.00B22,2013-01-10 23:15:00,
2013-01-10 18:20:00,61.5,54.6,30.20,NE,36,3.0,4.0,78,0.00,,,0.00,WeatherCatV1.00B22,2013-01-10 23:20:00,
2013-01-10 18:25:00,61.3,54.4,30.20,NE,36,3.0,4.0,78,0.00,,,0.00,WeatherCatV1.00B22,2013-01-10 23:25:00,
2013-01-10 18:30:00,61.4,54.5,30.20,NE,36,4.0,5.0,78,0.00,,,0.00,WeatherCatV1.00B22,2013-01-10 23:30:00,
2013-01-10 18:35:00,61.4,54.5,30.19,NNE,31,4.0,5.0,78,0.00,,,0.00,WeatherCatV1.00B22,2013-01-10 23:35:00,
2013-01-10 18:40:00,61.4,54.5,30.19,ENE,61,3.0,4.0,78,0.00,,,0.00,WeatherCatV1.00B22,2013-01-10 23:40:00,
2013-01-10 18:45:00,61.5,54.6,30.19,ENE,57,4.0,5.0,78,0.00,,,0.00,WeatherCatV1.00B22,2013-01-10 23:45:00,
2013-01-10 18:50:00,61.5,54.6,30.19,NE,54,4.0,5.0,78,0.00,,,0.00,WeatherCatV1.00B22,2013-01-10 23:50:00,
2013-01-10 18:55:00,61.5,54.6,30.19,ENE,59,3.0,4.0,78,0.00,,,0.00,WeatherCatV1.00B22,2013-01-10 23:55:00,
2013-01-10 19:00:00,61.6,54.3,30.19,East,83,2.0,5.0,77,0.00,,,0.00,WeatherCatV1.00B22,2013-01-11 00:00:00,
2013-01-10 19:05:00,61.8,54.5,30.19,East,80,6.0,6.0,77,0.00,,,0.00,WeatherCatV1.00B22,2013-01-11 00:05:00,
2013-01-10 19:10:00,62.0,54.3,30.19,East,81,3.0,5.0,76,0.00,,,0.00,WeatherCatV1.00B22,2013-01-11 00:10:00,
2013-01-10 19:15:00,62.0,54.3,30.19,East,84,3.0,5.0,76,0.00,,,0.00,WeatherCatV1.00B22,2013-01-11 00:15:00,
2013-01-10 19:20:00,62.0,54.3,30.19,East,80,3.0,5.0,76,0.00,,,0.00,WeatherCatV1.00B22,2013-01-11 00:20:00,
2013-01-10 19:25:00,62.0,54.3,30.19,East,93,3.0,5.0,76,0.00,,,0.00,WeatherCatV1.00B22,2013-01-11 00:25:00,
2013-01-10 19:30:00,62.1,54.4,30.18,ENE,65,5.0,5.0,76,0.00,,,0.00,WeatherCatV1.00B22,2013-01-11 00:30:00,
2013-01-10 19:35:00,62.2,54.2,30.18,ENE,65,4.0,5.0,75,0.00,,,0.00,WeatherCatV1.00B22,2013-01-11 00:35:00,
2013-01-10 19:40:00,62.3,54.3,30.18,ESE,107,4.0,7.0,75,0.00,,,0.00,WeatherCatV1.00B22,2013-01-11 00:40:00,
2013-01-10 19:45:00,62.3,53.9,30.19,SE,124,5.0,7.0,74,0.00,,,0.00,WeatherCatV1.00B22,2013-01-11 00:45:00,
2013-01-10 19:50:00,62.5,54.1,30.19,SE,127,4.0,5.0,74,0.00,,,0.00,WeatherCatV1.00B22,2013-01-11 00:50:00,
2013-01-10 19:55:00,62.7,54.3,30.19,ESE,105,8.0,9.0,74,0.00,,,0.00,WeatherCatV1.00B22,2013-01-11 00:55:00,
2013-01-10 20:00:00,62.9,54.1,30.19,ESE,102,3.0,7.0,73,0.00,,,0.00,WeatherCatV1.00B22,2013-01-11 01:00:00,
2013-01-10 20:05:00,62.8,54.4,30.19,East,91,6.0,10.0,74,0.00,,,0.00,WeatherCatV1.00B22,2013-01-11 01:05:00,
2013-01-10 20:10:00,62.9,54.5,30.19,East,81,5.0,8.0,74,0.00,,,0.00,WeatherCatV1.00B22,2013-01-11 01:10:00,
2013-01-10 20:15:00,62.7,54.3,30.18,ENE,75,7.0,8.0,74,0.00,,,0.00,WeatherCatV1.00B22,2013-01-11 01:15:00,
2013-01-10 20:20:00,62.5,54.1,30.19,SE,126,8.0,11.0,74,0.00,,,0.00,WeatherCatV1.00B22,2013-01-11 01:20:00,
2013-01-10 20:25:00,62.7,54.3,30.19,East,81,6.0,10.0,74,0.00,,,0.00,WeatherCatV1.00B22,2013-01-11 01:25:00,
2013-01-10 20:30:00,62.4,54.7,30.19,East,96,8.0,16.0,76,0.00,,,0.00,WeatherCatV1.00B22,2013-01-11 01:30:00,
2013-01-10 20:35:00,62.1,54.8,30.19,East,96,6.0,10.0,77,0.00,,,0.00,WeatherCatV1.00B22,2013-01-11 01:35:00,
2013-01-10 20:40:00,61.9,55.0,30.19,East,98,5.0,7.0,78,0.00,,,0.00,WeatherCatV1.00B22,2013-01-11 01:40:00,
2013-01-10 20:45:00,61.8,54.9,30.19,ESE,117,5.0,9.0,78,0.00,,,0.00,WeatherCatV1.00B22,2013-01-11 01:45:00,
2013-01-10 20:50:00,61.7,54.8,30.19,ESE,112,7.0,8.0,78,0.00,,,0.00,WeatherCatV1.00B22,2013-01-11 01:50:00,
2013-01-10 20:55:00,61.7,55.1,30.19,ESE,105,5.0,7.0,79,0.00,,,0.00,WeatherCatV1.00B22,2013-01-11 01:55:00,
2013-01-10 21:00:00,61.7,55.1,30.19,ESE,112,5.0,8.0,79,0.00,,,0.00,WeatherCatV1.00B22,2013-01-11 02:00:00,
2013-01-10 21:05:00,61.6,55.7,30.19,ESE,113,4.0,4.0,81,0.00,,,0.00,WeatherCatV1.00B22,2013-01-11 02:05:00,
2013-01-10 21:10:00,61.4,56.2,30.20,ESE,121,3.0,5.0,83,0.00,,,0.00,WeatherCatV1.00B22,2013-01-11 02:10:00,
2013-01-10 21:15:00,60.8,56.3,30.20,ESE,118,2.0,5.0,85,0.00,,,0.00,WeatherCatV1.00B22,2013-01-11 02:15:00,
2013-01-10 21:20:00,60.1,56.2,30.20,ESE,110,3.0,5.0,87,0.00,,,0.00,WeatherCatV1.00B22,2013-01-11 02:20:00,
2013-01-10 21:25:00,59.5,56.3,30.19,ESE,113,3.0,4.0,89,0.00,,,0.00,WeatherCatV1.00B22,2013-01-11 02:25:00,
2013-01-10 21:30:00,58.9,56.0,30.19,ESE,108,3.0,5.0,90,0.00,,,0.00,WeatherCatV1.00B22,2013-01-11 02:30:00,
2013-01-10 21:35:00,58.6,56.0,30.19,East,100,3.0,3.0,91,0.00,,,0.00,WeatherCatV1.00B22,2013-01-11 02:35:00,
2013-01-10 21:40:00,58.2,55.9,30.18,East,93,3.0,3.0,92,0.00,,,0.00,WeatherCatV1.00B22,2013-01-11 02:40:00,
2013-01-10 21:45:00,58.1,56.1,30.18,East,98,2.0,4.0,93,0.00,,,0.00,WeatherCatV1.00B22,2013-01-11 02:45:00,
2013-01-10 21:50:00,58.0,56.0,30.18,East,99,3.0,5.0,93,0.00,,,0.00,WeatherCatV1.00B22,2013-01-11 02:50:00,
2013-01-10 22:00:00,57.8,55.8,30.18,East,87,3.0,4.0,93,0.00,,,0.00,WeatherCatV1.00B22,2013-01-11 03:00:00,
2013-01-10 22:05:00,57.7,56.0,30.17,ENE,74,3.0,5.0,94,0.00,,,0.01,WeatherCatV1.00B22,2013-01-11 03:05:00,
2013-01-10 22:10:00,57.7,56.0,30.17,East,82,2.0,3.0,94,0.00,,,0.01,WeatherCatV1.00B22,2013-01-11 03:10:00,
2013-01-10 22:15:00,57.7,56.0,30.17,ENE,69,2.0,5.0,94,0.00,,,0.01,WeatherCatV1.00B22,2013-01-11 03:15:00,
2013-01-10 22:20:00,57.7,56.0,30.17,ENE,61,3.0,5.0,94,0.00,,,0.01,WeatherCatV1.00B22,2013-01-11 03:20:00,
2013-01-10 22:25:00,57.8,56.1,30.17,ENE,76,3.0,4.0,94,0.00,,,0.01,WeatherCatV1.00B22,2013-01-11 03:25:00,
2013-01-10 22:30:00,57.7,56.0,30.16,ENE,76,4.0,6.0,94,0.00,,,0.01,WeatherCatV1.00B22,2013-01-11 03:30:00,
2013-01-10 22:35:00,57.7,56.0,30.16,NE,53,4.0,5.0,94,0.00,,,0.01,WeatherCatV1.00B22,2013-01-11 03:35:00,
2013-01-10 22:40:00,57.7,56.0,30.16,ENE,57,4.0,6.0,94,0.00,,,0.01,WeatherCatV1.00B22,2013-01-11 03:40:00,
2013-01-10 22:45:00,57.7,56.0,30.16,ENE,65,3.0,4.0,94,0.00,,,0.01,WeatherCatV1.00B22,2013-01-11 03:45:00,
2013-01-10 22:50:00,57.7,56.0,30.16,ENE,61,3.0,4.0,94,0.00,,,0.01,WeatherCatV1.00B22,2013-01-11 03:50:00,
2013-01-10 22:55:00,57.6,55.9,30.16,ENE,70,2.0,4.0,94,0.00,,,0.01,WeatherCatV1.00B22,2013-01-11 03:55:00,
2013-01-10 23:00:00,57.5,55.8,30.16,ENE,61,4.0,5.0,94,0.00,,,0.01,WeatherCatV1.00B22,2013-01-11 04:00:00,
2013-01-10 23:05:00,57.4,55.7,30.16,ENE,71,3.0,5.0,94,0.00,,,0.01,WeatherCatV1.00B22,2013-01-11 04:05:00,
2013-01-10 23:10:00,57.3,55.6,30.16,ENE,62,3.0,5.0,94,0.00,,,0.02,WeatherCatV1.00B22,2013-01-11 04:10:00,
2013-01-10 23:15:00,57.3,55.9,30.15,East,88,3.0,6.0,95,0.00,,,0.02,WeatherCatV1.00B22,2013-01-11 04:15:00,
2013-01-10 23:20:00,57.1,55.7,30.15,ESE,103,3.0,6.0,95,0.00,,,0.02,WeatherCatV1.00B22,2013-01-11 04:20:00,
2013-01-10 23:25:00,57.1,55.7,30.14,ENE,60,4.0,7.0,95,0.00,,,0.02,WeatherCatV1.00B22,2013-01-11 04:25:00,
2013-01-10 23:30:00,57.1,56.0,30.15,East,82,5.0,6.0,96,0.00,,,0.02,WeatherCatV1.00B22,2013-01-11 04:30:00,
2013-01-10 23:35:00,57.1,56.0,30.15,East,82,5.0,7.0,96,0.00,,,0.02,WeatherCatV1.00B22,2013-01-11 04:35:00,
2013-01-10 23:40:00,57.2,56.1,30.15,East,94,6.0,8.0,96,0.00,,,0.02,WeatherCatV1.00B22,2013-01-11 04:40:00,
2013-01-10 23:45:00,57.3,56.2,30.15,ESE,112,5.0,7.0,96,0.00,,,0.02,WeatherCatV1.00B22,2013-01-11 04:45:00,
2013-01-10 23:50:00,57.3,56.2,30.14,ENE,76,3.0,7.0,96,0.00,,,0.02,WeatherCatV1.00B22,2013-01-11 04:50:00,
2013-01-10 23:55:00,57.3,56.2,30.13,ESE,106,10.0,10.0,96,0.00,,,0.02,WeatherCatV1.00B22,2013-01-11 04:55:00,